Tracking 20066 objects as of 7-Dec-2019
HD Live streaming from Space Station
objects crossing your sky now

FENGYUN 1C DEB

Track FENGYUN 1C DEB now!
10-day predictions


NORAD ID: 37921
Int'l Code: 1999-025ENW
Perigee: 860.9 km
Apogee: 983.5 km
Inclination: 99.3 °
Period: 103.3 minutes
Semi major axis: 7293 km
RCS: 0.0041 m2 (small)
Launch date: May 10, 1999
Source: People's Republic of China (PRC)
Launch site: Taiyaun Space Center, China (TSC)

Note: This is SATELLITE DEBRIS
aabbcc
Your satellite tracking list
Your tracking list is empty




NASA's NSSDC Master Catalog

Two Line Element Set (TLE):
1 37921U 99025ENW 19340.31522619 -.00000034 +00000-0 +87709-5 0  9997
2 37921 099.3018 005.8869 0084039 325.3348 034.2352 13.93876302325115
Source of the keplerian elements: AFSPC